Terminal Aerodrome Forecast
Issued by NWS Jackson, MS

Home | Current Version | Previous Version | Text Only | Print | Product List | Glossary On
Versions: 1 2 3 4 5 6 7 8 9 10 11 12
000
FTUS44 KMEG 271720
TAFTUP
TAF
KTUP 271720Z 2718/2818 19010G16KT P6SM SCT040 BKN250
     FM280000 17006KT P6SM VCSH SCT040 BKN150
     FM280800 17005KT P6SM SCT040 OVC100=

USA.gov is the U.S. government's official web portal to all federal, state and local government web resources and services.